When you browse on this site, cookies collect data to enhance your experience and personalize the content and advertising you see.
Visit our Privacy Policy to learn more. By continuing to use the site, you agree to this use of cookies and data.
  • In Switzerland
  • List of Countries
  • For 7 days
  • Water Temperature
  • Weather Map
  • Weather Widgets
  • user-avatar
    Login

    Hourly Weather Seversk

    Today, 23 February, Sunday

    Time Temperature Precipitation Wind Pressure Humidity
    00:00 +1°C° 0 mm 0 mps 760 mmHg 98%
    01:00 +1°C° 0 mm 0 mps 760 mmHg 98%
    02:00 +1°C° 0 mm 0 mps 760 mmHg 98%
    03:00 +2°C° 0 mm 1 mps 759 mmHg 98%
    04:00 +2°C° 0 mm 1 mps 759 mmHg 98%
    05:00 +1°C° 0 mm 2 mps 758 mmHg 98%
    06:00 +1°C° 0 mm 2 mps 758 mmHg 97%
    07:00 0°C° 0 mm 3 mps 758 mmHg 96%
    08:00 0°C° 0 mm 3 mps 758 mmHg 94%
    09:00 -1°C° 0 mm 4 mps 757 mmHg 92%
    10:00 0°C° 0 mm 5 mps 757 mmHg 88%
    11:00 0°C° 0 mm 5 mps 756 mmHg 84%
    12:00 +1°C° 0 mm 6 mps 756 mmHg 80%
    13:00 0°C° 0.1 mm 7 mps 755 mmHg 83%
    14:00 0°C° 0.1 mm 7 mps 755 mmHg 86%
    15:00 -1°C° 0.1 mm 8 mps 754 mmHg 89%
    16:00 -1°C° 0.6 mm 8 mps 754 mmHg 92%
    17:00 -1°C° 0.6 mm 8 mps 753 mmHg 94%
    18:00 -1°C° 0.6 mm 8 mps 752 mmHg 96%
    19:00 -1°C° 0.2 mm 8 mps 752 mmHg 95%
    20:00 0°C° 0.2 mm 8 mps 752 mmHg 95%
    21:00 0°C° 0.2 mm 8 mps 751 mmHg 94%
    22:00 0°C° 0 mm 8 mps 751 mmHg 91%
    23:00 +1°C° 0 mm 8 mps 750 mmHg 87%

    Tomorrow, 24 February, Monday

    Time Temperature Precipitation Wind Pressure Humidity
    00:00 +1°C° 0 mm 8 mps 750 mmHg 84%
    01:00 +1°C° 0 mm 8 mps 749 mmHg 85%
    02:00 0°C° 0 mm 7 mps 749 mmHg 87%
    03:00 0°C° 0 mm 7 mps 749 mmHg 88%
    04:00 +1°C° 0.1 mm 6 mps 748 mmHg 91%
    05:00 +1°C° 0.1 mm 5 mps 748 mmHg 93%
    06:00 +1°C° 0.1 mm 5 mps 747 mmHg 96%
    07:00 +1°C° 0.4 mm 5 mps 746 mmHg 96%
    08:00 +1°C° 0.4 mm 6 mps 745 mmHg 96%
    09:00 +2°C° 0.4 mm 7 mps 745 mmHg 95%
    10:00 +1°C° 0.8 mm 8 mps 743 mmHg 95%
    11:00 +1°C° 0.8 mm 9 mps 742 mmHg 95%
    12:00 +1°C° 0.8 mm 10 mps 740 mmHg 94%
    13:00 +1°C° 0.9 mm 10 mps 739 mmHg 95%
    14:00 +1°C° 0.9 mm 9 mps 738 mmHg 95%
    15:00 +1°C° 0.9 mm 9 mps 737 mmHg 96%
    16:00 +1°C° 0.4 mm 8 mps 736 mmHg 95%
    17:00 +2°C° 0.4 mm 7 mps 735 mmHg 94%
    18:00 +3°C° 0.4 mm 5 mps 734 mmHg 93%
    19:00 +3°C° 0.3 mm 5 mps 735 mmHg 93%
    20:00 +2°C° 0.3 mm 5 mps 735 mmHg 93%
    21:00 +3°C° 0.3 mm 4 mps 735 mmHg 94%
    22:00 +1°C° 0.7 mm 6 mps 736 mmHg 94%
    23:00 -1°C° 0.7 mm 9 mps 737 mmHg 95%

    Day after tomorrow, 25 February, Tuesday

    Time Temperature Precipitation Wind Pressure Humidity
    00:00 -3°C° 0.7 mm 11 mps 737 mmHg 96%
    01:00 -3°C° 0.8 mm 11 mps 739 mmHg 92%
    02:00 -3°C° 0.8 mm 11 mps 740 mmHg 88%
    03:00 -3°C° 0.8 mm 12 mps 742 mmHg 83%
    04:00 -3°C° 0 mm 11 mps 743 mmHg 82%
    05:00 -3°C° 0 mm 10 mps 745 mmHg 81%
    06:00 -3°C° 0 mm 9 mps 746 mmHg 80%
    07:00 -3°C° 0 mm 9 mps 748 mmHg 79%
    08:00 -4°C° 0 mm 8 mps 749 mmHg 77%
    09:00 -4°C° 0 mm 8 mps 751 mmHg 76%
    10:00 -2°C° 0 mm 8 mps 751 mmHg 73%
    11:00 -1°C° 0 mm 7 mps 752 mmHg 70%
    12:00 -1°C° 0 mm 7 mps 752 mmHg 67%
    13:00 +1°C° 0 mm 6 mps 753 mmHg 65%
    14:00 +1°C° 0 mm 6 mps 753 mmHg 63%
    15:00 +2°C° 0 mm 5 mps 753 mmHg 60%
    16:00 +1°C° 0 mm 4 mps 753 mmHg 64%
    17:00 +1°C° 0 mm 4 mps 753 mmHg 68%
    18:00 +1°C° 0 mm 3 mps 753 mmHg 72%
    19:00 +1°C° 0 mm 3 mps 754 mmHg 72%
    20:00 +1°C° 0 mm 3 mps 754 mmHg 73%
    21:00 0°C° 0 mm 4 mps 754 mmHg 74%
    22:00 0°C° 0 mm 4 mps 754 mmHg 73%
    23:00 0°C° 0 mm 4 mps 753 mmHg 72%

    26 February, Wednesday

    Time Temperature Precipitation Wind Pressure Humidity
    00:00 0°C° 0 mm 5 mps 753 mmHg 72%
    01:00 0°C° 0 mm 5 mps 753 mmHg 75%
    02:00 0°C° 0 mm 5 mps 752 mmHg 78%
    03:00 0°C° 0 mm 5 mps 752 mmHg 82%
    04:00 0°C° 0 mm 5 mps 752 mmHg 82%
    05:00 0°C° 0 mm 5 mps 751 mmHg 82%
    06:00 -1°C° 0 mm 6 mps 751 mmHg 83%
    07:00 +1°C° 0 mm 6 mps 751 mmHg 80%
    08:00 +1°C° 0 mm 6 mps 751 mmHg 78%
    09:00 +1°C° 0 mm 6 mps 751 mmHg 75%
    10:00 +3°C° 0 mm 7 mps 751 mmHg 70%
    11:00 +4°C° 0 mm 7 mps 751 mmHg 64%
    12:00 +6°C° 0 mm 7 mps 750 mmHg 58%
    13:00 +6°C° 0 mm 7 mps 750 mmHg 58%
    14:00 +6°C° 0 mm 7 mps 750 mmHg 57%
    15:00 +8°C° 0 mm 7 mps 749 mmHg 56%
    16:00 +7°C° 0 mm 6 mps 749 mmHg 60%
    17:00 +5°C° 0 mm 6 mps 749 mmHg 64%
    18:00 +5°C° 0 mm 6 mps 748 mmHg 68%
    19:00 +4°C° 0 mm 6 mps 748 mmHg 70%
    20:00 +4°C° 0 mm 6 mps 749 mmHg 71%
    21:00 +3°C° 0 mm 7 mps 749 mmHg 73%
    22:00 +3°C° 0 mm 6 mps 748 mmHg 73%
    23:00 +3°C° 0 mm 6 mps 748 mmHg 72%

    27 February, Thursday

    Time Temperature Precipitation Wind Pressure Humidity
    00:00 +2°C° 0 mm 5 mps 748 mmHg 72%
    01:00 +2°C° 0 mm 5 mps 748 mmHg 71%
    02:00 +2°C° 0 mm 6 mps 748 mmHg 71%
    03:00 +2°C° 0 mm 6 mps 747 mmHg 70%
    04:00 +2°C° 0 mm 6 mps 747 mmHg 71%
    05:00 +2°C° 0 mm 6 mps 747 mmHg 71%
    06:00 +2°C° 0 mm 6 mps 747 mmHg 72%
    07:00 +3°C° 0 mm 6 mps 747 mmHg 73%
    08:00 +3°C° 0 mm 6 mps 747 mmHg 74%
    09:00 +4°C° 0 mm 6 mps 747 mmHg 75%
    10:00 +5°C° 0 mm 6 mps 747 mmHg 70%
    11:00 +8°C° 0 mm 6 mps 747 mmHg 65%
    12:00 +9°C° 0 mm 6 mps 747 mmHg 60%
    13:00 +10°C° 0 mm 6 mps 747 mmHg 60%
    14:00 +11°C° 0 mm 6 mps 746 mmHg 60%
    15:00 +13°C° 0 mm 6 mps 746 mmHg 60%
    16:00 +11°C° 0 mm 6 mps 746 mmHg 64%
    17:00 +10°C° 0 mm 5 mps 746 mmHg 67%
    18:00 +10°C° 0 mm 4 mps 747 mmHg 71%
    19:00 +8°C° 0 mm 4 mps 747 mmHg 75%
    20:00 +7°C° 0 mm 4 mps 747 mmHg 80%
    21:00 +7°C° 0 mm 4 mps 748 mmHg 84%
    22:00 +6°C° 0 mm 4 mps 748 mmHg 86%
    23:00 +7°C° 0 mm 3 mps 748 mmHg 89%

    28 February, Friday

    Time Temperature Precipitation Wind Pressure Humidity
    00:00 +7°C° 0 mm 3 mps 748 mmHg 91%
    01:00 +5°C° 0 mm 3 mps 748 mmHg 91%
    02:00 +5°C° 0 mm 3 mps 748 mmHg 92%
    03:00 +6°C° 0 mm 2 mps 748 mmHg 93%
    04:00 +6°C° 0 mm 2 mps 748 mmHg 93%
    05:00 +6°C° 0 mm 2 mps 748 mmHg 93%
    06:00 +6°C° 0 mm 2 mps 748 mmHg 93%
    07:00 +6°C° 0 mm 2 mps 748 mmHg 93%
    08:00 +6°C° 0 mm 2 mps 749 mmHg 92%
    09:00 +8°C° 0 mm 1 mps 749 mmHg 92%
    10:00 +9°C° 0 mm 1 mps 749 mmHg 87%
    11:00 +10°C° 0 mm 1 mps 749 mmHg 82%
    12:00 +11°C° 0 mm 1 mps 749 mmHg 76%
    13:00 +12°C° 0 mm 2 mps 749 mmHg 73%
    14:00 +12°C° 0 mm 2 mps 749 mmHg 70%
    15:00 +12°C° 0 mm 3 mps 749 mmHg 67%
    16:00 +12°C° 0 mm 2 mps 749 mmHg 69%
    17:00 +12°C° 0 mm 2 mps 749 mmHg 72%
    18:00 +10°C° 0 mm 2 mps 749 mmHg 75%
    19:00 +9°C° 0 mm 2 mps 749 mmHg 77%
    20:00 +9°C° 0 mm 2 mps 749 mmHg 79%
    21:00 +9°C° 0 mm 1 mps 749 mmHg 81%
    22:00 +9°C° 0 mm 1 mps 750 mmHg 82%
    23:00 +9°C° 0 mm 1 mps 750 mmHg 83%
    Show more